Theta_e
308 306 306 306 305 304 302 292 291 303 300 289 286 286 292 295 294 297 294 292 290 288 288 285 285 285 289 295 293 287 289 284 280 285 291 293 290 286 285 278 276 278 279 279
307 306 305 305 305 304 299 293 291 302 298 281 283 288 292 293 292 293 292 290 291 290 286 282 288 289 295 295 292 288 289 283 281 281 284 290 288 289 289 287 285 279 277 279
306 305 305 305 304 304 297 292 286 290 291 289 286 286 288 289 296 293 292 291 291 288 286 287 285 287 292 293 292 299 294 288 285 279 283 287 285 287 289 287 282 280 281 283
304 304 304 305 304 304 296 289 286 287 282 284 285 285 289 288 287 292 290 288 289 287 282 284 284 287 288 291 295 292 292 285 287 288 288 288 287 286 287 286 287 283 284 284
304 303 303 304 303 303 293 287 285 287 285 286 285 286 285 286 289 289 288 286 289 287 283 285 284 285 285 285 289 289 293 283 287 284 287 287 285 287 288 288 288 287 287 286
303 303 303 303 304 299 290 291 291 292 285 284 282 283 285 286 288 290 292 289 286 286 288 291 291 292 291 290 287 285 286 288 285 280 285 284 281 288 289 289 291 289 283 289
303 303 303 303 302 299 292 291 292 287 280 283 284 287 287 286 288 286 290 291 286 291 294 293 291 291 290 291 290 290 286 286 286 280 282 273 286 294 293 289 290 292 290 292
302 302 302 302 302 301 292 291 289 288 285 285 287 288 287 287 288 287 289 290 292 293 289 285 284 285 288 292 290 288 291 288 283 278 278 283 286 292 289 287 286 292 290 292
302 302 302 302 302 301 292 290 292 293 286 281 290 286 287 282 282 284 288 292 294 290 287 284 280 279 285 282 289 294 293 290 286 282 277 275 285 293 295 293 281 292 292 291
302 302 302 302 301 302 296 292 292 290 287 287 288 284 283 285 282 280 285 289 287 293 286 284 281 281 290 281 280 283 285 286 282 282 280 282 290 293 294 280 282 292 293 293
302 301 302 302 301 301 298 293 293 293 288 287 289 290 284 284 284 280 284 284 285 284 282 287 283 283 284 281 284 278 278 279 281 283 280 276 293 292 286 289 292 294 295 294
301 301 301 302 301 301 300 291 295 295 290 287 290 292 294 292 291 289 289 285 287 289 284 286 286 284 284 282 277 288 279 286 284 285 284 291 295 293 294 293 293 295 295 296
301 301 301 302 301 301 300 296 296 293 288 285 284 287 292 294 294 296 285 288 292 290 295 289 288 285 288 279 280 281 287 293 286 287 290 290 295 295 296 296 296 297 298 298
301 300 301 301 301 301 301 295 296 293 290 284 284 293 292 297 295 293 294 293 294 296 296 291 289 286 292 287 285 286 289 291 290 288 292 294 295 292 295 296 298 297 298 299
301 301 301 301 301 301 299 296 294 296 287 283 283 291 293 295 295 295 295 294 294 294 292 291 289 292 290 291 290 288 292 292 287 288 295 293 291 295 297 295 294 297 297 298
300 301 302 302 301 301 294 288 296 294 294 289 284 288 290 294 296 297 293 294 292 295 293 293 294 296 291 286 287 293 296 299 298 295 298 296 295 297 297 295 297 298 298 299
300 301 301 301 301 298 290 289 294 300 298 290 286 283 290 293 295 295 295 296 295 297 295 292 293 294 293 289 287 293 295 297 299 298 294 292 295 294 296 297 298 299 299 299
300 301 301 302 302 300 295 296 301 302 293 294 285 284 286 293 289 291 294 293 297 297 295 295 292 294 293 288 294 296 298 299 297 294 294 296 296 296 297 298 297 296 296 296
300 301 303 299 294 294 298 306 304 300 295 286 285 284 281 291 289 290 294 296 291 297 292 292 293 291 288 293 297 296 295 293 292 294 294 296 296 296 296 296 295 294 294 295
301 298 295 292 297 306 304 297 295 293 293 293 286 291 285 290 288 291 293 294 291 288 292 296 291 289 293 292 296 299 296 295 294 291 291 292 294 295 295 295 296 295 294 294
290 288 289 291 298 292 289 286 290 289 286 289 288 290 287 290 288 289 294 291 288 288 290 290 288 286 288 291 293 297 296 294 293 294 294 295 297 296 295 295 296 296 295 293
291 291 293 291 290 288 286 284 290 287 286 289 287 286 288 287 291 291 291 288 291 284 292 291 285 287 290 291 292 294 298 294 293 295 295 296 298 298 297 297 297 295 294 294
295 291 289 287 286 279 283 280 281 281 284 287 285 281 284 285 288 284 288 286 285 289 286 285 286 288 289 289 291 295 300 294 295 296 296 296 296 298 297 296 297 295 294 294
290 289 277 283 282 283 281 281 282 284 285 283 282 280 281 283 282 286 284 288 289 283 277 279 285 287 288 290 294 300 299 293 293 295 295 295 295 296 297 296 297 295 294 294
289 287 277 283 285 285 285 284 283 284 284 282 281 281 281 281 284 287 285 282 277 279 279 283 287 288 289 289 291 299 301 295 293 293 294 294 295 295 295 296 297 296 295 295
290 287 283 284 283 282 282 282 282 284 284 283 283 282 282 284 285 280 279 274 276 280 285 287 288 288 288 288 291 297 302 301 294 293 295 294 294 294 295 296 297 296 296 294
288 285 286 284 283 282 283 283 285 286 283 280 281 281 276 286 279 275 280 277 282 286 286 287 288 288 287 289 291 296 302 303 301 295 294 294 295 295 294 293 295 295 295 295
Wind_Speed
21 23 24 26 26 27 8 3 3 4 4 5 1 0 3 4 5 5 4 3 1 3 2 3 3 4 4 3 1 2 1 2 4 9 20 15 12 11 8 5 6 5 5 21
21 22 24 25 25 21 3 3 4 4 5 3 3 6 5 3 3 3 4 4 3 4 1 3 4 4 5 2 3 2 3 0 6 8 5 5 2 3 1 1 2 8 6 15
19 20 22 24 26 24 3 3 4 6 6 2 2 4 5 5 5 2 1 3 1 3 2 4 5 5 6 6 2 4 6 4 7 10 14 13 19 17 17 11 6 7 14 25
19 21 22 23 25 27 3 4 1 2 5 2 3 3 3 4 5 3 4 3 1 2 5 4 7 4 6 8 7 2 7 6 8 13 16 19 21 21 20 18 16 11 18 22
17 17 20 22 25 21 5 3 3 4 4 4 4 1 1 2 2 3 5 4 6 6 7 9 16 7 3 7 4 7 4 4 4 15 15 15 17 16 16 15 16 16 22 24
14 16 16 19 20 12 3 2 0 2 4 4 2 3 1 4 8 6 7 7 6 6 9 6 13 14 14 11 8 7 5 3 3 8 6 12 9 3 3 5 8 7 7 6
13 14 15 15 16 8 1 2 1 2 5 2 4 5 7 13 6 7 9 8 6 6 7 11 12 14 16 15 16 11 5 4 3 4 7 3 3 2 1 8 13 6 16 10
12 12 13 13 12 12 2 2 2 1 5 4 12 6 5 7 9 5 9 10 4 8 6 5 7 4 1 3 3 6 5 3 3 3 4 11 9 3 2 4 12 12 6 13
11 11 11 11 11 11 3 1 2 1 3 5 4 3 3 4 4 6 5 9 7 4 2 1 3 3 3 4 4 5 5 4 3 1 5 6 3 5 5 6 11 5 13 14
11 10 10 10 10 11 3 2 2 1 3 6 3 5 3 2 1 4 5 7 7 2 3 2 2 3 2 3 3 2 3 3 8 9 6 8 1 4 6 5 7 15 17 13
11 11 10 10 10 9 5 4 3 1 3 10 6 4 3 1 3 3 4 6 4 4 5 3 3 3 3 3 3 3 3 2 4 3 5 8 5 5 4 7 14 15 12 16
11 11 11 11 10 8 6 2 2 1 4 9 3 14 16 14 18 4 2 4 5 5 2 2 3 3 3 1 3 2 3 5 3 5 6 3 4 8 13 8 15 14 14 16
11 11 12 11 10 9 4 3 2 2 4 6 4 4 5 7 14 13 6 3 6 6 4 1 2 5 1 3 5 3 4 3 5 4 4 6 11 8 7 15 14 14 15 17
12 12 12 12 11 10 9 3 2 2 2 4 9 4 10 8 6 8 15 6 2 2 2 2 4 3 4 4 6 6 7 4 6 5 11 11 10 6 10 16 13 14 15 15
12 12 13 12 11 10 6 4 4 6 4 3 7 14 4 8 8 13 11 14 6 2 2 3 3 3 4 2 4 4 3 4 3 5 10 8 8 14 9 16 17 14 13 14
13 13 13 12 10 7 2 3 1 3 3 3 5 5 7 10 11 6 4 8 3 2 3 3 3 2 2 3 4 7 5 5 5 6 7 5 10 8 10 17 15 13 13 13
14 14 14 12 8 1 3 3 3 7 3 3 4 5 6 6 5 4 2 4 3 4 3 3 3 3 5 3 3 13 16 17 13 5 7 8 6 8 11 13 13 13 10 9
16 16 16 14 6 2 4 4 9 6 3 2 3 6 6 4 4 4 2 1 2 3 2 1 2 1 3 4 7 15 12 11 5 7 5 1 12 8 11 10 12 12 10 11
18 19 4 3 2 2 3 7 7 1 1 1 1 3 6 5 4 3 3 2 2 2 2 2 1 1 3 6 9 9 6 4 7 8 8 9 8 8 12 12 12 11 11 10
16 3 1 1 2 3 7 0 1 1 1 1 2 2 5 3 3 4 3 1 3 2 3 1 3 1 16 18 22 9 5 5 6 5 10 10 11 11 13 11 11 9 11 11
3 3 0 2 7 2 1 2 2 2 2 2 3 4 5 2 3 3 2 3 3 3 1 2 1 4 16 22 23 20 8 6 6 4 6 5 5 8 13 12 11 11 10 10
3 1 1 2 1 1 2 3 3 2 2 2 4 5 6 5 3 3 3 3 3 3 5 2 4 7 20 22 22 20 14 8 6 4 4 4 4 7 9 11 11 10 10 11
1 1 0 3 1 1 3 1 2 3 2 3 3 5 3 5 1 0 2 3 3 5 5 5 3 16 20 23 23 17 9 7 5 4 7 6 7 4 9 10 10 9 9 10
2 3 2 3 2 2 2 3 4 5 3 5 3 3 2 2 4 2 2 3 3 4 6 5 8 19 20 19 22 7 10 5 3 4 5 6 7 7 9 9 10 10 11 10
2 3 2 3 1 1 2 1 1 3 3 2 4 1 1 3 3 4 4 4 4 3 5 6 11 19 18 18 19 17 10 5 3 2 4 5 6 6 5 7 8 9 9 9
2 3 1 1 3 1 0 0 2 2 4 1 3 3 4 5 4 4 6 4 5 4 6 8 12 16 18 19 18 17 9 7 3 2 2 4 6 5 5 6 6 7 9 10
3 3 2 3 3 3 2 2 2 2 3 2 1 4 2 1 3 4 3 2 4 7 9 9 14 15 17 19 19 18 12 10 6 3 1 1 2 4 5 5 5 6 6 8
Wind_Direction
348 349 348 349 351 347 17 355 44 318 24 44 40 31 292 288 314 343 347 52 87 206 244 256 245 242 234 202 194 320 191 148 290 270 271 277 259 247 194 207 242 236 261 262
348 351 349 349 351 0 328 2 281 315 69 91 331 308 293 275 296 12 14 351 16 15 307 322 224 269 302 145 31 251 171 135 298 303 355 21 33 308 206 277 172 215 241 268
352 351 351 350 349 352 109 37 353 328 34 45 60 346 274 320 302 125 280 260 83 24 305 199 270 286 290 339 267 244 140 199 230 272 280 286 284 272 257 240 236 259 234 272
354 353 354 354 353 347 104 29 353 205 310 339 338 268 272 315 354 345 330 328 218 199 272 279 250 251 298 303 271 174 142 241 247 266 270 276 276 278 275 266 259 251 283 269
354 357 358 356 358 348 74 72 25 354 297 307 320 290 167 276 347 285 284 235 298 286 226 223 279 287 189 229 251 155 191 266 280 278 262 272 286 279 267 275 267 259 260 268
351 353 4 4 8 16 52 323 344 332 286 318 341 250 45 313 326 272 236 313 305 261 259 255 269 254 249 235 201 184 195 220 236 262 328 315 288 233 239 298 288 306 301 318
347 352 357 5 12 53 112 288 332 53 280 280 249 298 305 295 268 258 279 286 277 251 307 292 268 250 248 242 243 202 193 193 230 274 344 288 245 175 274 320 302 339 294 290
338 349 349 1 3 6 81 286 36 327 279 232 287 263 241 302 289 260 266 280 252 297 301 303 315 322 292 130 131 145 158 167 273 271 257 285 275 179 68 334 300 290 318 302
331 339 346 351 352 349 88 268 222 311 320 258 273 312 244 271 291 321 281 332 314 328 250 292 267 279 316 331 125 162 183 166 210 243 256 261 223 159 308 292 295 38 330 316
322 331 338 341 342 339 3 264 178 126 267 272 190 216 245 247 263 267 306 326 320 347 347 293 265 270 283 334 316 213 251 238 245 263 259 266 134 337 315 276 315 318 319 312
314 324 328 328 337 344 356 278 201 122 255 282 249 256 215 247 175 196 289 349 338 355 19 308 348 337 323 349 268 232 218 236 237 238 242 269 37 8 311 292 297 295 300 298
307 313 317 319 325 335 334 279 274 172 222 257 278 256 241 239 245 207 215 234 318 288 357 26 331 319 311 264 278 179 280 200 270 230 251 204 336 254 288 293 297 295 295 296
302 308 311 314 315 315 299 239 259 274 282 297 337 267 255 225 227 221 195 234 189 240 194 175 266 261 229 249 248 262 293 158 243 267 245 247 267 282 304 307 296 297 296 296
300 306 307 308 307 313 314 271 226 184 277 292 282 312 302 271 236 184 210 235 223 160 131 173 244 254 216 252 254 281 255 203 255 257 268 284 277 277 325 315 311 300 302 296
295 302 304 306 308 319 309 256 224 207 169 279 287 311 255 280 259 245 214 213 210 157 182 212 235 251 246 248 248 244 208 233 246 286 316 282 303 304 345 339 311 309 305 305
298 303 303 304 309 339 360 351 92 186 177 281 300 275 284 308 320 333 162 167 188 221 208 223 227 259 175 279 265 259 268 280 266 292 296 260 274 302 345 323 311 311 309 310
297 298 298 297 300 114 219 192 190 156 167 251 292 300 282 301 315 326 50 158 192 181 217 219 224 216 182 255 263 280 301 299 303 295 326 325 15 313 320 321 313 315 311 316
301 299 291 284 259 254 261 253 251 196 195 259 303 282 326 356 311 319 338 237 204 208 254 227 232 170 225 264 250 269 286 303 316 345 341 39 297 311 339 331 331 334 335 336
306 303 291 110 95 165 239 123 104 129 160 240 251 312 304 347 283 273 301 273 259 163 243 230 167 212 242 256 297 306 336 327 313 339 350 292 315 3 343 345 341 347 341 340
306 150 183 106 142 202 97 201 223 50 21 223 255 261 268 9 300 289 300 337 286 265 236 179 202 259 352 353 339 303 310 330 340 329 351 349 350 347 350 340 341 359 346 339
45 33 268 310 323 71 92 211 219 141 262 213 244 243 280 268 248 275 257 314 270 279 292 250 294 50 342 331 334 339 332 328 345 30 8 5 303 337 354 350 356 353 352 354
184 161 294 303 89 119 238 202 134 214 253 227 228 247 215 270 209 262 302 273 302 264 339 266 53 346 335 332 331 324 300 317 345 42 18 328 312 1 356 346 352 2 357 359
113 135 39 86 175 67 232 28 356 347 250 253 272 302 260 333 31 334 313 309 320 320 17 33 58 329 334 336 330 314 290 317 353 42 7 6 351 347 17 5 7 7 9 9
184 167 2 172 218 207 151 150 195 239 215 274 259 259 221 287 6 8 324 356 9 36 20 354 337 332 326 326 326 316 321 316 350 24 28 8 9 23 23 21 8 14 19 13
210 145 211 191 127 84 175 214 31 278 246 294 332 343 80 343 11 15 357 20 44 25 12 306 323 322 329 332 329 322 334 301 316 30 39 25 17 17 14 20 29 19 15 21
225 219 181 97 90 348 96 247 322 298 323 38 45 20 35 21 6 21 11 43 26 342 320 329 318 322 328 325 332 324 348 332 308 9 45 33 33 25 20 11 14 23 18 24
215 240 164 138 113 167 210 166 273 298 55 15 47 53 191 316 43 33 29 18 304 312 330 319 316 323 324 325 329 334 344 353 349 322 142 87 52 39 29 17 14 25 24 30